(129268) = 1994 JV8 = 1998 FZ6 = 2005 QK126

Discovered at Kitt Peak on 2005-08-28 by Spacewatch.

Orbit

Orbit type: Main Belt

Note: WebGL enabled browser required.

epoch2023-02-25.0
epoch JD2460000.5
perihelion date2021-03-22.36479
perihelion JD2459295.86479
argument of perihelion (°)283.98537
ascending node (°)142.40032
inclination (°)2.71527
eccentricity0.0493027
perihelion distance (AU)2.7220889
Tisserand w.r.t. Jupiter3.3
ΔV w.r.t. Earth (km/sec)10.3
semimajor axis (AU)2.8632552
mean anomaly (°)143.34353
mean daily motion (°/day)0.20342940
aphelion distance (AU)3.004
period (years)4.84
P-vector [x]0.39991320
P-vector [y]0.85814785
P-vector [z]0.32194984
Q-vector [x]-0.91609715
Q-vector [y]0.36316623
Q-vector [z]0.16993027
absolute magnitude16.16
phase slope0.15
uncertainty0
referenceMPO 745323
observations used463
oppositions17
arc length (days)10644
first opposition used1994
last opposition used2023
residual rms (arc-secs)0.71
perturbers coarse indicatorM-v
perturbers precise indicator003Ek
first observation date used1994-05-01.0
last observation date used2023-06-22.0
computer nameMPCLINUX
JD of orbit computation2456406.178262
perihelion JD uncertainty (days)2.6371E-04
argument of perihelion uncertainty (°)1.0399E-04
ascending node uncertainty (°)8.8663E-05
inclination uncertainty (°)4.8769E-06
eccentricity uncertainty 4.0756E-08
perihelion distance uncertainty (AU)1.1401E-07
Minimum Orbit Intersection Distances (in AU)
for orbit epoch: 2460000.5, reference: E2023-MB3
Mercury2.41285
Venus2.00131
Earth1.73598
Mars1.14493
Jupiter2.14132
Saturn6.32638
Uranus15.5462
Neptune27.0844

Observations

468 total observations over interval: 1994 05 01.33037 – 2023 06 22.318411
These data are available for download (format description).

Date (UT) J2000 RA J2000 Dec Magn Location Ref
1994 05 01.33037 15 30 21.17 -14 50 38.5 20.6 V 691 – Steward Observatory, Kitt Peak-Spacewatch MPC 24481
1994 05 01.35431 15 30 19.99 -14 50 35.0   691 – Steward Observatory, Kitt Peak-Spacewatch MPC 24481
1994 05 01.37855 15 30 18.80 -14 50 29.4   691 – Steward Observatory, Kitt Peak-Spacewatch MPC 24481
1994 05 15.27306 15 18 50.86 -14 04 41.1   691 – Steward Observatory, Kitt Peak-Spacewatch MPC 24481
1994 05 15.33920 15 18 47.42 -14 04 28.5 19.5 V 691 – Steward Observatory, Kitt Peak-Spacewatch MPC 24481
1994 05 15.40553 15 18 44.00 -14 04 15.8   691 – Steward Observatory, Kitt Peak-Spacewatch MPC 24481
1998 03 20.18858 10 24 32.72 +11 23 52.8 20.4 V 691 – Steward Observatory, Kitt Peak-Spacewatch MPS 711
1998 03 20.21175 10 24 31.83 +11 23 58.8 20.4 V 691 – Steward Observatory, Kitt Peak-Spacewatch MPS 711
1998 03 20.23854 10 24 30.80 +11 24 05.4 20.3 V 691 – Steward Observatory, Kitt Peak-Spacewatch MPS 711
1998 03 25.18086 10 21 41.63 +11 42 57.7 20.4 V 691 – Steward Observatory, Kitt Peak-Spacewatch MPS 711
1998 03 25.20204 10 21 40.98 +11 43 02.7 20.5 V 691 – Steward Observatory, Kitt Peak-Spacewatch MPS 711
1998 03 25.22346 10 21 40.21 +11 43 07.0 20.4 V 691 – Steward Observatory, Kitt Peak-Spacewatch MPS 711
2000 08 09.36368 22 26 40.18 -10 11 46.4 20.8 V 691 – Steward Observatory, Kitt Peak-Spacewatch MPS 142722
2000 08 09.39296 22 26 38.94 -10 11 54.8 20.8 V 691 – Steward Observatory, Kitt Peak-Spacewatch MPS 142722
2000 08 09.42369 22 26 37.64 -10 12 03.8 21.7 V 691 – Steward Observatory, Kitt Peak-Spacewatch MPS 142722
2001 12 12.21322 04 44 11.26 +18 20 49.6 19.8   644 – Palomar Mountain/NEAT MPS 142722
2001 12 12.28566 04 44 07.16 +18 20 45.7 19.6   644 – Palomar Mountain/NEAT MPS 142722
2001 12 12.34837 04 44 03.65 +18 20 41.1 20.3   644 – Palomar Mountain/NEAT MPS 142722
2001 12 17.22499 04 39 43.83 +18 16 07.5 19.0   704 – Lincoln Laboratory ETS, New Mexico MPS 142722
2001 12 17.24054 04 39 42.99 +18 16 07.1 19.5   704 – Lincoln Laboratory ETS, New Mexico MPS 142722
2001 12 17.25582 04 39 42.12 +18 16 06.2 19.5   704 – Lincoln Laboratory ETS, New Mexico MPS 142722
2001 12 17.27090 04 39 41.35 +18 16 05.4 19.5   704 – Lincoln Laboratory ETS, New Mexico MPS 142722
2001 12 17.28601 04 39 40.51 +18 16 04.4 19.0   704 – Lincoln Laboratory ETS, New Mexico MPS 142722
2003 01 29.50900 11 59 28.57 +01 30 20.9 21.6 V 291 – LPL/Spacewatch II MPS 142722
2003 01 29.53204 11 59 28.40 +01 30 23.9 21.2 V 291 – LPL/Spacewatch II MPS 142722
2003 01 29.55852 11 59 28.16 +01 30 27.0 21.0 V 291 – LPL/Spacewatch II MPS 142722
2003 03 24.20467 11 28 10.18 +05 48 14.6 19.9 V 691 – Steward Observatory, Kitt Peak-Spacewatch MPS 142722
2003 03 24.23093 11 28 08.96 +05 48 22.8 19.9 V 691 – Steward Observatory, Kitt Peak-Spacewatch MPS 142722
2003 03 24.25734 11 28 07.74 +05 48 31.0 20.0 V 691 – Steward Observatory, Kitt Peak-Spacewatch MPS 142722
2003 04 01.224380 11 22 32.506 +06 27 52.55 21.01 V 645 – Apache Point-Sloan Digital Sky Survey MPS 142722
2003 04 01.227852 11 22 32.360 +06 27 53.46 21.97   645 – Apache Point-Sloan Digital Sky Survey MPS 142722
2005 08 28.26954 23 21 12.81 -05 49 35.0 20.6 V 691 – Steward Observatory, Kitt Peak-Spacewatch MPS 140371
2005 08 28.29025 23 21 11.92 -05 49 41.8 20.7 V 691 – Steward Observatory, Kitt Peak-Spacewatch MPS 140371
2005 08 28.31096 23 21 11.01 -05 49 48.6 20.7 V 691 – Steward Observatory, Kitt Peak-Spacewatch MPS 140371
2005 09 01.26992 23 18 19.47 -06 12 11.7 20.0 V 691 – Steward Observatory, Kitt Peak-Spacewatch MPS 140371
2005 09 01.28719 23 18 18.68 -06 12 17.6 19.9 V 691 – Steward Observatory, Kitt Peak-Spacewatch MPS 140371
2005 09 01.30448 23 18 17.87 -06 12 23.5 19.9 V 691 – Steward Observatory, Kitt Peak-Spacewatch MPS 140371
2005 09 07.25069 23 13 47.26 -06 46 45.3 19.4   I10 – CAO, San Pedro de Atacama (until 2012) MPS 141175
2005 09 07.26928 23 13 46.35 -06 46 51.3 19.6   I10 – CAO, San Pedro de Atacama (until 2012) MPS 141175
2005 09 07.28795 23 13 45.45 -06 46 59.1 19.7   I10 – CAO, San Pedro de Atacama (until 2012) MPS 141175
2005 09 07.93175 23 13 15.78 -06 50 47.5 18.7 V A50 – Andrushivka Astronomical Observatory MPS 178143
2005 09 23.29700 23 01 43.64 -08 14 52.0 20.4 V 703 – Catalina Sky Survey MPS 142248
2005 09 23.30825 23 01 43.24 -08 14 54.8 19.5 V 703 – Catalina Sky Survey MPS 142248
2005 09 23.31953 23 01 42.67 -08 14 57.3 19.9 V 703 – Catalina Sky Survey MPS 142248
2005 09 23.33076 23 01 42.27 -08 15 01.4 19.8 V 703 – Catalina Sky Survey MPS 142248
2005 10 06.15411 22 53 59.06 -09 08 45.0 20.1 V G96 – Mt. Lemmon Survey MPS 144065
2005 10 06.16075 22 53 58.84 -09 08 46.6 20.0 V G96 – Mt. Lemmon Survey MPS 144065
2005 10 06.16735 22 53 58.63 -09 08 47.8 20.1 V G96 – Mt. Lemmon Survey MPS 144065
2005 10 06.17396 22 53 58.45 -09 08 48.9 20.1 V G96 – Mt. Lemmon Survey MPS 144065
2008 03 09.29041 12 42 00.56 -01 40 54.5   691 – Steward Observatory, Kitt Peak-Spacewatch MPS 243280
2008 03 09.30555 12 41 59.97 -01 40 49.9   691 – Steward Observatory, Kitt Peak-Spacewatch MPS 243280
2008 03 09.32069 12 41 59.36 -01 40 45.4   691 – Steward Observatory, Kitt Peak-Spacewatch MPS 243280
2008 03 26.33652 12 29 34.51 -00 05 34.1 19.5 V G96 – Mt. Lemmon Survey MPS 244463
2008 03 26.35190 12 29 33.79 -00 05 28.9 19.5 V G96 – Mt. Lemmon Survey MPS 244463
2008 03 26.35958 12 29 33.43 -00 05 26.1 19.6 V G96 – Mt. Lemmon Survey MPS 244463
2008 04 03.21944 12 23 27.42 +00 38 25.7 20.0 V G96 – Mt. Lemmon Survey MPS 245497
2008 04 03.22485 12 23 27.13 +00 38 27.6 20.0 V G96 – Mt. Lemmon Survey MPS 245497
2008 04 03.23035 12 23 26.88 +00 38 29.1 20.1 V G96 – Mt. Lemmon Survey MPS 245497
2008 04 03.23583 12 23 26.62 +00 38 31.0 20.2 V G96 – Mt. Lemmon Survey MPS 245497
2008 04 28.17293 12 08 01.71 +02 20 40.0 21.5 V G96 – Mt. Lemmon Survey MPS 248783
2008 04 28.17841 12 08 01.53 +02 20 40.8 21.2 V G96 – Mt. Lemmon Survey MPS 248783
2008 04 28.18392 12 08 01.42 +02 20 41.3 21.4 V G96 – Mt. Lemmon Survey MPS 248783
2008 04 28.18947 12 08 01.32 +02 20 42.2 21.0 V G96 – Mt. Lemmon Survey MPS 248783
2010 09 04.32849 00 27 15.63 +00 22 31.5 19.7   704 – Lincoln Laboratory ETS, New Mexico MPS 347676
2010 09 04.34163 00 27 15.17 +00 22 28.0 19.9   704 – Lincoln Laboratory ETS, New Mexico MPS 347676
2010 09 04.35499 00 27 14.71 +00 22 24.6 20.0   704 – Lincoln Laboratory ETS, New Mexico MPS 347676
2010 09 13.462501 00 21 27.022 -00 25 59.45 20.00 i F51 – Pan-STARRS 1, Haleakala MPS 364719
2010 09 13.474099 00 21 26.519 -00 26 03.23 20.04 i F51 – Pan-STARRS 1, Haleakala MPS 364719
2011 12 24.41788 07 22 40.76 +19 25 33.2 20.0 V G96 – Mt. Lemmon Survey MPS 405526
2011 12 24.42479 07 22 40.40 +19 25 33.7 20.3 V G96 – Mt. Lemmon Survey MPS 405526
2011 12 24.43175 07 22 40.04 +19 25 34.7 20.0 V G96 – Mt. Lemmon Survey MPS 405526
2011 12 24.43870 07 22 39.72 +19 25 35.6 20.1 V G96 – Mt. Lemmon Survey MPS 405526
2011 12 26.22855 07 21 09.16 +19 29 22.1 20.0 V 691 – Steward Observatory, Kitt Peak-Spacewatch MPS 405526
2011 12 26.24648 07 21 08.20 +19 29 24.3 19.9 V 691 – Steward Observatory, Kitt Peak-Spacewatch MPS 405526
2011 12 26.26442 07 21 07.25 +19 29 26.7 19.8 V 691 – Steward Observatory, Kitt Peak-Spacewatch MPS 405526
2011 12 30.20132 07 17 38.76 +19 38 08.5 20.3 V 691 – Steward Observatory, Kitt Peak-Spacewatch MPS 405526
2011 12 30.21907 07 17 37.75 +19 38 11.3 20.3 V 691 – Steward Observatory, Kitt Peak-Spacewatch MPS 405526
2011 12 30.23680 07 17 36.74 +19 38 13.6 20.4 V 691 – Steward Observatory, Kitt Peak-Spacewatch MPS 405526
2012 01 03.23663 07 13 56.05 +19 47 28.9 19.9 V 691 – Steward Observatory, Kitt Peak-Spacewatch MPS 406730
2012 01 03.25561 07 13 54.95 +19 47 31.6 20.0 V 691 – Steward Observatory, Kitt Peak-Spacewatch MPS 406730
2012 01 03.27086 07 13 54.09 +19 47 33.9 19.8 V 691 – Steward Observatory, Kitt Peak-Spacewatch MPS 406730
2012 01 19.28410 06 59 09.119 +20 25 34.03 20.4 g F51 – Pan-STARRS 1, Haleakala MPS 408423
2012 01 19.29674 06 59 08.447 +20 25 36.04 20.5 g F51 – Pan-STARRS 1, Haleakala MPS 408423
2012 01 19.31096 06 59 07.685 +20 25 38.04 19.8 r F51 – Pan-STARRS 1, Haleakala MPS 408423
